QPF
0.00 0.00 0.00 0.00 0.00 0.02 0.02 0.01 0.01 0.00 0.00 0.00 0.00 0.00 0.00 0.00 0.00 0.00 0.00 0.00 0.00 0.00 0.00 0.00 0.00 0.00 0.00 0.00 0.00 0.00 0.00 0.00 0.00 0.00 0.00 0.00 0.00 0.00 0.00 0.00 0.00 0.00 0.00 0.00 0.00 0.00 0.00 0.00 0.00
0.00 0.00 0.00 0.00 0.00 0.01 0.01 0.01 0.01 0.00 0.00 0.00 0.00 0.00 0.00 0.00 0.00 0.00 0.00 0.00 0.00 0.00 0.00 0.00 0.00 0.00 0.00 0.00 0.00 0.00 0.00 0.00 0.00 0.00 0.00 0.00 0.00 0.00 0.00 0.00 0.00 0.00 0.00 0.00 0.00 0.00 0.00 0.00 0.00
0.00 0.00 0.00 0.00 0.00 0.00 0.00 0.01 0.01 0.01 0.01 0.00 0.00 0.00 0.00 0.00 0.00 0.00 0.00 0.00 0.00 0.00 0.00 0.00 0.00 0.00 0.00 0.00 0.00 0.00 0.00 0.00 0.00 0.00 0.00 0.00 0.00 0.00 0.00 0.00 0.01 0.01 0.01 0.00 0.00 0.00 0.00 0.00 0.00
0.00 0.00 0.00 0.00 0.00 0.00 0.00 0.00 0.01 0.01 0.01 0.00 0.00 0.00 0.00 0.00 0.00 0.00 0.00 0.00 0.00 0.00 0.00 0.00 0.00 0.00 0.00 0.00 0.00 0.00 0.00 0.00 0.00 0.00 0.00 0.00 0.00 0.00 0.00 0.01 0.01 0.01 0.01 0.01 0.01 0.01 0.00 0.00 0.00
0.00 0.00 0.00 0.00 0.00 0.00 0.00 0.00 0.00 0.01 0.01 0.00 0.00 0.00 0.00 0.00 0.00 0.00 0.00 0.00 0.00 0.00 0.00 0.00 0.00 0.00 0.00 0.00 0.00 0.00 0.00 0.00 0.00 0.00 0.00 0.00 0.00 0.00 0.00 0.00 0.01 0.01 0.01 0.00 0.00 0.00 0.00 0.00 0.00
0.00 0.00 0.00 0.00 0.00 0.00 0.00 0.00 0.00 0.01 0.01 0.01 0.00 0.00 0.00 0.00 0.00 0.00 0.00 0.00 0.00 0.00 0.00 0.00 0.00 0.00 0.00 0.00 0.00 0.00 0.00 0.00 0.00 0.00 0.00 0.00 0.00 0.00 0.00 0.00 0.00 0.00 0.00 0.00 0.00 0.00 0.00 0.00 0.00
0.00 0.00 0.00 0.00 0.00 0.00 0.00 0.00 0.00 0.00 0.01 0.00 0.00 0.00 0.00 0.00 0.00 0.00 0.00 0.00 0.00 0.00 0.00 0.00 0.00 0.00 0.00 0.00 0.00 0.00 0.00 0.00 0.00 0.00 0.00 0.00 0.00 0.00 0.00 0.00 0.00 0.00 0.00 0.00 0.00 0.00 0.00 0.00 0.00
0.00 0.00 0.00 0.00 0.00 0.00 0.00 0.00 0.00 0.00 0.00 0.00 0.00 0.00 0.00 0.00 0.00 0.00 0.00 0.00 0.00 0.00 0.00 0.00 0.00 0.00 0.00 0.01 0.01 0.01 0.01 0.01 0.01 0.01 0.00 0.00 0.00 0.00 0.00 0.00 0.00 0.00 0.00 0.00 0.00 0.00 0.01 0.01 0.01
0.00 0.00 0.00 0.00 0.00 0.00 0.00 0.00 0.00 0.00 0.00 0.00 0.00 0.00 0.00 0.00 0.00 0.00 0.00 0.00 0.00 0.00 0.00 0.01 0.01 0.01 0.01 0.01 0.01 0.02 0.02 0.02 0.02 0.02 0.01 0.01 0.00 0.00 0.00 0.00 0.00 0.00 0.01 0.03 0.03 0.03 0.03 0.03 0.02
0.00 0.00 0.00 0.00 0.00 0.00 0.00 0.00 0.00 0.00 0.00 0.00 0.00 0.00 0.00 0.00 0.00 0.00 0.00 0.00 0.01 0.01 0.01 0.01 0.01 0.01 0.02 0.02 0.02 0.03 0.04 0.04 0.03 0.03 0.02 0.02 0.01 0.01 0.01 0.01 0.01 0.02 0.05 0.09 0.14 0.16 0.13 0.09 0.04
0.00 0.00 0.00 0.00 0.00 0.00 0.00 0.00 0.00 0.00 0.00 0.00 0.00 0.00 0.00 0.00 0.00 0.00 0.00 0.00 0.01 0.02 0.03 0.03 0.02 0.02 0.02 0.03 0.02 0.03 0.04 0.05 0.05 0.05 0.04 0.04 0.05 0.05 0.04 0.03 0.03 0.08 0.14 0.15 0.19 0.27 0.17 0.10 0.10
0.00 0.00 0.00 0.00 0.00 0.00 0.00 0.00 0.00 0.00 0.00 0.00 0.00 0.00 0.00 0.00 0.00 0.00 0.00 0.01 0.04 0.09 0.11 0.12 0.10 0.07 0.05 0.05 0.04 0.03 0.04 0.06 0.08 0.09 0.10 0.11 0.14 0.15 0.13 0.13 0.11 0.15 0.20 0.26 0.28 0.29 0.20 0.16 0.18
0.00 0.00 0.00 0.00 0.00 0.00 0.00 0.00 0.00 0.00 0.00 0.00 0.00 0.00 0.00 0.00 0.00 0.00 0.01 0.03 0.08 0.19 0.28 0.33 0.33 0.26 0.19 0.16 0.13 0.11 0.10 0.11 0.13 0.18 0.21 0.22 0.21 0.19 0.21 0.19 0.20 0.21 0.25 0.27 0.27 0.24 0.23 0.24 0.24
0.00 0.00 0.00 0.00 0.00 0.00 0.00 0.00 0.00 0.00 0.00 0.00 0.00 0.00 0.01 0.01 0.01 0.02 0.06 0.11 0.19 0.31 0.49 0.60 0.61 0.56 0.51 0.45 0.38 0.37 0.36 0.27 0.23 0.26 0.27 0.29 0.27 0.24 0.22 0.22 0.19 0.17 0.17 0.16 0.18 0.18 0.20 0.24 0.26
0.00 0.00 0.00 0.00 0.00 0.00 0.00 0.00 0.00 0.00 0.00 0.00 0.00 0.01 0.02 0.03 0.04 0.10 0.17 0.23 0.34 0.45 0.55 0.66 0.74 0.75 0.78 0.81 0.74 0.65 0.63 0.55 0.45 0.35 0.28 0.26 0.24 0.22 0.21 0.17 0.12 0.10 0.10 0.11 0.13 0.16 0.17 0.16 0.16
0.00 0.00 0.00 0.00 0.00 0.00 0.00 0.00 0.00 0.00 0.00 0.00 0.01 0.03 0.06 0.08 0.10 0.16 0.22 0.26 0.31 0.35 0.42 0.47 0.57 0.66 0.79 0.91 0.94 0.96 1.01 0.97 0.78 0.48 0.32 0.24 0.18 0.16 0.14 0.09 0.05 0.04 0.03 0.05 0.08 0.10 0.08 0.08 0.08
0.00 0.00 0.00 0.00 0.00 0.00 0.00 0.00 0.00 0.00 0.01 0.01 0.03 0.06 0.10 0.13 0.17 0.22 0.22 0.22 0.22 0.21 0.22 0.27 0.37 0.49 0.68 0.91 1.09 1.19 1.20 1.02 0.84 0.59 0.40 0.24 0.15 0.09 0.06 0.03 0.01 0.01 0.01 0.01 0.02 0.02 0.02 0.02 0.02
0.00 0.00 0.00 0.00 0.00 0.00 0.00 0.00 0.00 0.00 0.00 0.01 0.03 0.06 0.10 0.14 0.17 0.17 0.16 0.14 0.12 0.09 0.13 0.21 0.35 0.52 0.78 0.98 1.07 1.08 1.05 0.86 0.65 0.50 0.35 0.20 0.12 0.07 0.03 0.02 0.01 0.00 0.00 0.00 0.00 0.00 0.00 0.00 0.00
0.00 0.00 0.00 0.00 0.00 0.00 0.00 0.00 0.00 0.01 0.01 0.01 0.03 0.05 0.08 0.10 0.10 0.09 0.08 0.06 0.04 0.04 0.13 0.33 0.50 0.63 0.77 0.82 0.73 0.63 0.54 0.45 0.35 0.24 0.19 0.14 0.09 0.06 0.03 0.01 0.00 0.00 0.00 0.00 0.00 0.00 0.00 0.00 0.00
0.00 0.00 0.00 0.00 0.00 0.00 0.00 0.00 0.00 0.01 0.01 0.02 0.03 0.04 0.05 0.05 0.05 0.05 0.04 0.02 0.01 0.01 0.06 0.15 0.25 0.31 0.33 0.33 0.33 0.32 0.29 0.26 0.20 0.16 0.15 0.12 0.08 0.05 0.03 0.01 0.00 0.00 0.00 0.00 0.00 0.00 0.00 0.00 0.00
0.00 0.00 0.00 0.00 0.00 0.00 0.00 0.00 0.00 0.00 0.00 0.01 0.02 0.02 0.02 0.03 0.03 0.03 0.01 0.00 0.00 0.00 0.01 0.02 0.04 0.08 0.10 0.12 0.19 0.19 0.18 0.17 0.14 0.13 0.13 0.10 0.07 0.05 0.03 0.01 0.00 0.00 0.00 0.00 0.00 0.00 0.00 0.00 0.00
0.00 0.00 0.00 0.00 0.00 0.00 0.00 0.00 0.00 0.00 0.00 0.01 0.01 0.02 0.03 0.02 0.02 0.01 0.01 0.00 0.00 0.00 0.01 0.01 0.03 0.05 0.06 0.07 0.10 0.09 0.09 0.11 0.12 0.12 0.11 0.11 0.09 0.07 0.05 0.03 0.01 0.00 0.00 0.00 0.00 0.00 0.00 0.00 0.00
0.00 0.00 0.00 0.00 0.00 0.00 0.00 0.01 0.01 0.00 0.01 0.01 0.01 0.02 0.02 0.03 0.02 0.01 0.01 0.01 0.00 0.00 0.01 0.01 0.02 0.03 0.04 0.04 0.05 0.05 0.06 0.07 0.09 0.11 0.12 0.14 0.14 0.12 0.10 0.08 0.05 0.02 0.01 0.00 0.00 0.00 0.00 0.00 0.00
0.00 0.00 0.00 0.00 0.00 0.00 0.00 0.01 0.01 0.01 0.01 0.01 0.01 0.01 0.02 0.01 0.01 0.00 0.00 0.00 0.00 0.00 0.01 0.01 0.01 0.01 0.02 0.02 0.02 0.03 0.04 0.05 0.07 0.09 0.10 0.12 0.14 0.14 0.13 0.12 0.10 0.08 0.04 0.01 0.00 0.00 0.00 0.00 0.00
0.01 0.00 0.00 0.00 0.00 0.00 0.01 0.01 0.01 0.01 0.01 0.01 0.01 0.00 0.00 0.01 0.00 0.00 0.00 0.00 0.00 0.00 0.00 0.00 0.00 0.00 0.00 0.01 0.01 0.01 0.01 0.02 0.03 0.04 0.06 0.08 0.10 0.11 0.12 0.12 0.13 0.12 0.09 0.06 0.03 0.01 0.00 0.00 0.00
0.01 0.00 0.00 0.01 0.01 0.01 0.02 0.02 0.02 0.01 0.01 0.01 0.00 0.00 0.00 0.00 0.00 0.00 0.00 0.00 0.00 0.00 0.00 0.00 0.00 0.00 0.00 0.00 0.00 0.00 0.00 0.00 0.00 0.00 0.01 0.02 0.04 0.05 0.07 0.07 0.09 0.11 0.12 0.11 0.07 0.03 0.01 0.00 0.00
0.01 0.01 0.01 0.01 0.02 0.02 0.03 0.03 0.02 0.01 0.00 0.00 0.00 0.00 0.00 0.00 0.00 0.00 0.00 0.00 0.00 0.00 0.00 0.00 0.00 0.00 0.00 0.00 0.00 0.00 0.00 0.00 0.00 0.00 0.00 0.00 0.01 0.01 0.02 0.03 0.05 0.08 0.10 0.11 0.10 0.08 0.05 0.02 0.01
0.00 0.00 0.01 0.01 0.02 0.02 0.03 0.04 0.03 0.01 0.00 0.00 0.01 0.01 0.00 0.00 0.00 0.00 0.00 0.00 0.00 0.00 0.00 0.00 0.00 0.00 0.00 0.00 0.00 0.00 0.00 0.00 0.00 0.00 0.00 0.00 0.00 0.00 0.01 0.02 0.03 0.04 0.07 0.09 0.09 0.09 0.08 0.05 0.02
0.00 0.00 0.01 0.01 0.02 0.02 0.02 0.02 0.01 0.00 0.00 0.01 0.00 0.00 0.00 0.00 0.00 0.00 0.00 0.00 0.00 0.00 0.00 0.00 0.00 0.00 0.00 0.00 0.00 0.00 0.00 0.00 0.00 0.00 0.00 0.00 0.00 0.00 0.00 0.01 0.02 0.03 0.05 0.07 0.09 0.09 0.10 0.08 0.06
0.00 0.00 0.00 0.01 0.01 0.01 0.00 0.00 0.00 0.00 0.00 0.00 0.00 0.00 0.00 0.00 0.00 0.00 0.00 0.00 0.00 0.00 0.00 0.00 0.00 0.00 0.00 0.00 0.00 0.00 0.00 0.00 0.00 0.00 0.00 0.00 0.00 0.00 0.00 0.00 0.00 0.01 0.03 0.06 0.09 0.11 0.12 0.11 0.10
MSLP
1009.52 1010.51 1011.58 1012.57 1013.31 1013.69 1013.68 1013.30 1012.66 1011.90 1011.19 1010.64 1010.30 1010.18 1010.19 1010.25 1010.26 1010.13 1009.86 1009.49 1009.12 1008.85 1008.77 1008.92 1009.30 1009.84 1010.43 1010.99 1011.43 1011.71 1011.86 1011.91 1011.95 1012.05 1012.25 1012.55 1012.93 1013.33 1013.71 1014.00 1014.21 1014.34 1014.44 1014.55 1014.68 1014.87 1015.10 1015.33 1015.54
1009.93 1011.04 1012.14 1013.07 1013.68 1013.86 1013.60 1012.96 1012.06 1011.09 1010.20 1009.52 1009.12 1008.98 1009.03 1009.15 1009.25 1009.23 1009.09 1008.86 1008.61 1008.44 1008.44 1008.65 1009.06 1009.62 1010.24 1010.82 1011.30 1011.65 1011.87 1012.01 1012.13 1012.28 1012.51 1012.80 1013.13 1013.47 1013.76 1013.98 1014.13 1014.24 1014.33 1014.45 1014.62 1014.85 1015.11 1015.37 1015.60
1010.48 1011.63 1012.71 1013.54 1013.97 1013.94 1013.44 1012.57 1011.48 1010.34 1009.34 1008.59 1008.16 1008.02 1008.09 1008.27 1008.43 1008.51 1008.47 1008.34 1008.20 1008.12 1008.20 1008.45 1008.89 1009.47 1010.09 1010.69 1011.20 1011.60 1011.88 1012.09 1012.27 1012.47 1012.71 1012.99 1013.28 1013.54 1013.76 1013.91 1014.01 1014.09 1014.19 1014.33 1014.53 1014.80 1015.10 1015.39 1015.64
1011.13 1012.27 1013.27 1013.95 1014.19 1013.95 1013.25 1012.21 1010.98 1009.76 1008.70 1007.93 1007.50 1007.37 1007.46 1007.67 1007.88 1008.01 1008.04 1008.00 1007.94 1007.95 1008.09 1008.39 1008.85 1009.43 1010.05 1010.65 1011.16 1011.58 1011.90 1012.15 1012.38 1012.61 1012.85 1013.11 1013.36 1013.57 1013.73 1013.83 1013.90 1013.96 1014.06 1014.22 1014.46 1014.75 1015.08 1015.40 1015.66
1011.80 1012.88 1013.75 1014.25 1014.30 1013.87 1013.02 1011.87 1010.59 1009.35 1008.31 1007.56 1007.15 1007.04 1007.14 1007.36 1007.59 1007.75 1007.84 1007.86 1007.89 1007.97 1008.17 1008.52 1009.00 1009.56 1010.16 1010.72 1011.22 1011.62 1011.95 1012.21 1012.45 1012.69 1012.94 1013.19 1013.41 1013.59 1013.71 1013.78 1013.82 1013.88 1013.98 1014.16 1014.41 1014.73 1015.07 1015.40 1015.68
1012.40 1013.37 1014.06 1014.37 1014.23 1013.66 1012.72 1011.53 1010.26 1009.07 1008.10 1007.42 1007.06 1006.97 1007.08 1007.30 1007.53 1007.71 1007.84 1007.93 1008.04 1008.20 1008.47 1008.86 1009.34 1009.89 1010.44 1010.95 1011.39 1011.74 1012.03 1012.28 1012.52 1012.76 1013.01 1013.25 1013.46 1013.62 1013.72 1013.77 1013.81 1013.86 1013.96 1014.13 1014.38 1014.70 1015.04 1015.37 1015.65
1012.83 1013.63 1014.12 1014.24 1013.94 1013.26 1012.28 1011.13 1009.94 1008.86 1008.00 1007.42 1007.12 1007.07 1007.19 1007.40 1007.63 1007.84 1008.02 1008.19 1008.38 1008.63 1008.97 1009.40 1009.89 1010.40 1010.89 1011.32 1011.67 1011.95 1012.17 1012.38 1012.59 1012.81 1013.06 1013.30 1013.51 1013.67 1013.77 1013.81 1013.83 1013.87 1013.95 1014.11 1014.34 1014.63 1014.95 1015.26 1015.53
1013.00 1013.61 1013.90 1013.84 1013.41 1012.68 1011.71 1010.64 1009.58 1008.65 1007.93 1007.47 1007.25 1007.24 1007.37 1007.59 1007.84 1008.09 1008.33 1008.58 1008.87 1009.21 1009.63 1010.09 1010.58 1011.04 1011.45 1011.78 1012.03 1012.20 1012.35 1012.49 1012.66 1012.86 1013.10 1013.34 1013.55 1013.72 1013.81 1013.85 1013.86 1013.87 1013.92 1014.04 1014.22 1014.47 1014.76 1015.04 1015.29
1012.90 1013.31 1013.42 1013.20 1012.69 1011.94 1011.04 1010.10 1009.20 1008.44 1007.88 1007.54 1007.40 1007.44 1007.60 1007.84 1008.11 1008.41 1008.73 1009.07 1009.46 1009.90 1010.38 1010.87 1011.33 1011.74 1012.05 1012.27 1012.39 1012.45 1012.50 1012.57 1012.69 1012.87 1013.10 1013.34 1013.56 1013.73 1013.82 1013.85 1013.83 1013.81 1013.81 1013.87 1014.00 1014.20 1014.43 1014.69 1014.92
1012.59 1012.81 1012.75 1012.43 1011.88 1011.17 1010.38 1009.59 1008.88 1008.30 1007.90 1007.67 1007.61 1007.69 1007.88 1008.14 1008.44 1008.80 1009.19 1009.62 1010.10 1010.61 1011.13 1011.62 1012.05 1012.37 1012.58 1012.67 1012.67 1012.62 1012.57 1012.57 1012.64 1012.79 1013.01 1013.25 1013.47 1013.64 1013.73 1013.74 1013.70 1013.64 1013.59 1013.59 1013.66 1013.80 1013.99 1014.21 1014.43
1012.16 1012.23 1012.05 1011.67 1011.14 1010.52 1009.87 1009.26 1008.73 1008.33 1008.06 1007.94 1007.94 1008.05 1008.25 1008.52 1008.85 1009.25 1009.70 1010.20 1010.73 1011.27 1011.80 1012.26 1012.62 1012.85 1012.94 1012.91 1012.78 1012.63 1012.49 1012.42 1012.45 1012.57 1012.77 1013.01 1013.23 1013.40 1013.49 1013.50 1013.43 1013.34 1013.25 1013.20 1013.22 1013.30 1013.46 1013.65 1013.85
1011.75 1011.72 1011.48 1011.11 1010.64 1010.15 1009.67 1009.25 1008.90 1008.65 1008.49 1008.43 1008.46 1008.57 1008.76 1009.03 1009.36 1009.77 1010.24 1010.75 1011.29 1011.83 1012.31 1012.70 1012.96 1013.08 1013.05 1012.90 1012.68 1012.43 1012.22 1012.09 1012.07 1012.17 1012.36 1012.59 1012.81 1012.99 1013.09 1013.10 1013.03 1012.93 1012.82 1012.74 1012.73 1012.78 1012.91 1013.08 1013.27
1011.50 1011.41 1011.17 1010.85 1010.51 1010.18 1009.88 1009.64 1009.46 1009.32 1009.25 1009.22 1009.24 1009.32 1009.47 1009.69 1009.99 1010.36 1010.80 1011.27 1011.76 1012.22 1012.61 1012.90 1013.04 1013.04 1012.90 1012.65 1012.34 1012.02 1011.75 1011.58 1011.53 1011.60 1011.77 1011.99 1012.22 1012.41 1012.53 1012.56 1012.52 1012.44 1012.35 1012.28 1012.26 1012.31 1012.42 1012.58 1012.76
1011.49 1011.38 1011.19 1010.98 1010.79 1010.64 1010.54 1010.47 1010.42 1010.38 1010.34 1010.30 1010.28 1010.29 1010.36 1010.50 1010.71 1011.01 1011.36 1011.74 1012.12 1012.46 1012.72 1012.87 1012.88 1012.76 1012.52 1012.19 1011.82 1011.46 1011.15 1010.95 1010.87 1010.91 1011.06 1011.26 1011.49 1011.70 1011.85 1011.94 1011.96 1011.94 1011.89 1011.87 1011.88 1011.95 1012.06 1012.21 1012.38
1011.70 1011.62 1011.52 1011.45 1011.43 1011.47 1011.55 1011.64 1011.70 1011.71 1011.67 1011.59 1011.49 1011.41 1011.37 1011.40 1011.51 1011.68 1011.91 1012.16 1012.39 1012.58 1012.68 1012.69 1012.57 1012.35 1012.03 1011.65 1011.25 1010.86 1010.54 1010.31 1010.20 1010.21 1010.31 1010.50 1010.72 1010.94 1011.14 1011.29 1011.39 1011.46 1011.51 1011.56 1011.63 1011.73 1011.86 1012.01 1012.16
1012.07 1012.04 1012.04 1012.12 1012.29 1012.52 1012.77 1012.99 1013.13 1013.17 1013.10 1012.96 1012.77 1012.58 1012.42 1012.34 1012.32 1012.36 1012.45 1012.54 1012.62 1012.64 1012.59 1012.46 1012.23 1011.93 1011.56 1011.16 1010.75 1010.36 1010.03 1009.78 1009.63 1009.59 1009.64 1009.79 1009.99 1010.22 1010.46 1010.68 1010.88 1011.05 1011.20 1011.35 1011.49 1011.64 1011.80 1011.95 1012.09
1012.46 1012.49 1012.61 1012.85 1013.20 1013.60 1014.00 1014.32 1014.52 1014.56 1014.46 1014.24 1013.96 1013.67 1013.41 1013.21 1013.08 1013.01 1012.97 1012.93 1012.85 1012.73 1012.54 1012.29 1011.98 1011.62 1011.24 1010.84 1010.44 1010.07 1009.74 1009.46 1009.27 1009.16 1009.15 1009.23 1009.39 1009.61 1009.87 1010.16 1010.44 1010.71 1010.97 1011.21 1011.43 1011.64 1011.83 1011.99 1012.12
1012.74 1012.84 1013.09 1013.48 1014.00 1014.56 1015.08 1015.48 1015.71 1015.74 1015.59 1015.30 1014.94 1014.57 1014.24 1013.97 1013.77 1013.62 1013.48 1013.33 1013.14 1012.90 1012.61 1012.27 1011.90 1011.52 1011.14 1010.76 1010.40 1010.05 1009.72 1009.42 1009.17 1008.99 1008.89 1008.89 1008.99 1009.17 1009.43 1009.75 1010.09 1010.44 1010.79 1011.11 1011.40 1011.66 1011.88 1012.05 1012.17
1012.82 1013.01 1013.38 1013.92 1014.59 1015.29 1015.91 1016.36 1016.61 1016.61 1016.41 1016.06 1015.65 1015.23 1014.87 1014.57 1014.34 1014.16 1013.97 1013.76 1013.50 1013.18 1012.82 1012.42 1012.02 1011.64 1011.28 1010.93 1010.60 1010.28 1009.96 1009.64 1009.34 1009.08 1008.89 1008.80 1008.81 1008.93 1009.16 1009.47 1009.84 1010.23 1010.62 1010.99 1011.33 1011.62 1011.86 1012.05 1012.18
1012.68 1012.96 1013.47 1014.16 1014.97 1015.78 1016.47 1016.96 1017.19 1017.15 1016.91 1016.52 1016.07 1015.64 1015.28 1015.00 1014.80 1014.63 1014.44 1014.22 1013.92 1013.56 1013.15 1012.72 1012.31 1011.92 1011.58 1011.28 1010.99 1010.70 1010.39 1010.06 1009.72 1009.39 1009.12 1008.93 1008.85 1008.89 1009.06 1009.33 1009.67 1010.06 1010.45 1010.83 1011.17 1011.48 1011.73 1011.93 1012.08
1012.38 1012.77 1013.42 1014.26 1015.19 1016.09 1016.83 1017.32 1017.53 1017.45 1017.15 1016.72 1016.26 1015.84 1015.51 1015.29 1015.14 1015.02 1014.87 1014.66 1014.36 1013.98 1013.54 1013.09 1012.65 1012.27 1011.95 1011.67 1011.42 1011.17 1010.88 1010.56 1010.20 1009.83 1009.50 1009.23 1009.07 1009.03 1009.11 1009.30 1009.59 1009.92 1010.27 1010.61 1010.93 1011.21 1011.46 1011.67 1011.83
1012.03 1012.56 1013.36 1014.34 1015.38 1016.35 1017.11 1017.58 1017.74 1017.59 1017.24 1016.77 1016.30 1015.90 1015.62 1015.46 1015.38 1015.33 1015.23 1015.04 1014.75 1014.35 1013.89 1013.40 1012.94 1012.55 1012.23 1011.98 1011.76 1011.55 1011.30 1011.01 1010.67 1010.30 1009.94 1009.63 1009.40 1009.28 1009.28 1009.39 1009.58 1009.82 1010.08 1010.35 1010.60 1010.84 1011.06 1011.26 1011.44
1011.81 1012.48 1013.42 1014.53 1015.66 1016.67 1017.42 1017.85 1017.94 1017.72 1017.29 1016.78 1016.30 1015.91 1015.67 1015.56 1015.55 1015.54 1015.49 1015.32 1015.02 1014.60 1014.10 1013.57 1013.08 1012.66 1012.33 1012.08 1011.90 1011.73 1011.54 1011.31 1011.01 1010.68 1010.34 1010.02 1009.77 1009.60 1009.52 1009.54 1009.63 1009.76 1009.92 1010.09 1010.25 1010.42 1010.58 1010.76 1010.94
1011.82 1012.64 1013.71 1014.92 1016.10 1017.12 1017.84 1018.20 1018.20 1017.89 1017.39 1016.83 1016.31 1015.93 1015.71 1015.63 1015.65 1015.67 1015.63 1015.46 1015.14 1014.68 1014.13 1013.55 1013.00 1012.54 1012.20 1011.95 1011.79 1011.67 1011.55 1011.38 1011.17 1010.91 1010.62 1010.34 1010.09 1009.90 1009.78 1009.72 1009.72 1009.75 1009.79 1009.85 1009.91 1009.99 1010.08 1010.22 1010.38
1012.15 1013.09 1014.25 1015.52 1016.72 1017.70 1018.36 1018.63 1018.54 1018.14 1017.57 1016.95 1016.39 1015.99 1015.76 1015.68 1015.69 1015.71 1015.65 1015.45 1015.09 1014.59 1013.98 1013.34 1012.74 1012.24 1011.86 1011.61 1011.47 1011.38 1011.32 1011.24 1011.11 1010.93 1010.72 1010.50 1010.29 1010.11 1009.97 1009.87 1009.80 1009.75 1009.70 1009.65 1009.61 1009.59 1009.61 1009.68 1009.81
1012.78 1013.80 1015.01 1016.28 1017.44 1018.36 1018.93 1019.11 1018.92 1018.44 1017.80 1017.12 1016.53 1016.09 1015.83 1015.73 1015.71 1015.69 1015.58 1015.33 1014.92 1014.36 1013.70 1013.01 1012.36 1011.82 1011.41 1011.14 1011.00 1010.94 1010.92 1010.89 1010.84 1010.75 1010.62 1010.47 1010.32 1010.17 1010.04 1009.93 1009.82 1009.71 1009.60 1009.47 1009.35 1009.25 1009.19 1009.19 1009.27
1013.65 1014.68 1015.88 1017.09 1018.17 1018.98 1019.45 1019.53 1019.26 1018.72 1018.03 1017.32 1016.70 1016.23 1015.93 1015.78 1015.70 1015.62 1015.45 1015.15 1014.68 1014.07 1013.37 1012.64 1011.96 1011.39 1010.95 1010.66 1010.50 1010.43 1010.42 1010.42 1010.40 1010.36 1010.29 1010.20 1010.11 1010.01 1009.92 1009.83 1009.72 1009.59 1009.45 1009.28 1009.11 1008.95 1008.82 1008.76 1008.77
1014.62 1015.62 1016.73 1017.83 1018.78 1019.46 1019.81 1019.81 1019.48 1018.91 1018.21 1017.50 1016.87 1016.38 1016.05 1015.84 1015.70 1015.54 1015.31 1014.94 1014.44 1013.80 1013.08 1012.35 1011.66 1011.06 1010.60 1010.27 1010.07 1009.96 1009.90 1009.87 1009.85 1009.81 1009.76 1009.70 1009.65 1009.60 1009.56 1009.50 1009.43 1009.33 1009.19 1009.03 1008.84 1008.65 1008.48 1008.37 1008.31
1015.59 1016.49 1017.46 1018.40 1019.18 1019.72 1019.95 1019.88 1019.52 1018.96 1018.29 1017.62 1017.01 1016.53 1016.17 1015.91 1015.70 1015.48 1015.18 1014.77 1014.24 1013.61 1012.90 1012.18 1011.50 1010.91 1010.42 1010.04 1009.77 1009.57 1009.43 1009.31 1009.21 1009.12 1009.04 1008.98 1008.94 1008.93 1008.93 1008.94 1008.93 1008.88 1008.79 1008.66 1008.50 1008.31 1008.13 1007.98 1007.88
1016.45 1017.21 1018.01 1018.75 1019.34 1019.73 1019.86 1019.74 1019.39 1018.87 1018.27 1017.67 1017.12 1016.66 1016.29 1015.99 1015.72 1015.44 1015.09 1014.65 1014.12 1013.50 1012.83 1012.16 1011.51 1010.92 1010.41 1009.97 1009.61 1009.29 1009.01 1008.76 1008.53 1008.33 1008.18 1008.08 1008.03 1008.04 1008.09 1008.15 1008.22 1008.25 1008.24 1008.17 1008.06 1007.90 1007.74 1007.58 1007.45
Thickness
5831 5828 5825 5816 5799 5786 5789 5804 5813 5817 5824 5835 5839 5835 5827 5821 5813 5812 5835 5845 5843 5837 5831 5826 5821 5816 5812 5807 5802 5799 5796 5794 5792 5790 5788 5785 5783 5781 5778 5776 5774 5772 5771 5769 5766 5763 5760 5758 5756
5830 5826 5818 5806 5789 5778 5791 5811 5814 5823 5835 5843 5844 5841 5833 5830 5834 5832 5836 5841 5841 5836 5830 5825 5820 5815 5810 5806 5801 5797 5794 5791 5789 5787 5785 5783 5781 5779 5776 5774 5772 5770 5769 5767 5765 5763 5760 5757 5755
5829 5826 5808 5795 5786 5782 5796 5816 5822 5834 5843 5843 5839 5842 5838 5835 5837 5836 5840 5841 5838 5833 5828 5824 5818 5813 5809 5804 5799 5795 5792 5789 5787 5785 5783 5781 5779 5777 5775 5772 5770 5769 5767 5765 5764 5762 5760 5757 5755
5824 5813 5803 5789 5789 5799 5810 5822 5830 5832 5839 5844 5841 5835 5842 5851 5847 5846 5845 5841 5835 5830 5826 5822 5816 5811 5806 5801 5797 5793 5790 5787 5785 5782 5779 5778 5776 5774 5772 5770 5768 5766 5765 5763 5761 5760 5758 5756 5754
5818 5802 5789 5779 5789 5807 5821 5830 5833 5829 5833 5840 5839 5832 5836 5849 5853 5848 5845 5841 5835 5829 5824 5820 5814 5809 5804 5799 5795 5791 5788 5785 5782 5779 5776 5774 5772 5770 5769 5767 5765 5763 5762 5760 5758 5757 5755 5754 5752
5803 5794 5775 5774 5789 5809 5821 5830 5829 5828 5832 5837 5837 5832 5835 5846 5846 5844 5843 5839 5834 5827 5821 5816 5811 5805 5800 5796 5792 5787 5784 5780 5777 5774 5772 5770 5768 5767 5765 5763 5761 5760 5758 5757 5755 5754 5752 5751 5750
5796 5785 5777 5783 5786 5799 5817 5827 5824 5824 5826 5834 5840 5829 5833 5839 5843 5841 5837 5832 5826 5820 5815 5810 5805 5800 5795 5791 5786 5782 5778 5775 5773 5770 5768 5766 5764 5762 5761 5759 5757 5756 5755 5753 5752 5750 5748 5747 5747
5803 5785 5781 5778 5784 5795 5817 5823 5828 5826 5828 5843 5844 5829 5828 5837 5840 5834 5828 5822 5817 5812 5807 5803 5798 5794 5790 5786 5782 5778 5774 5770 5768 5766 5764 5762 5760 5758 5757 5756 5754 5753 5752 5750 5749 5747 5745 5744 5743
5804 5773 5767 5780 5788 5799 5815 5814 5825 5837 5834 5839 5843 5840 5840 5842 5835 5825 5816 5810 5806 5802 5799 5796 5792 5787 5783 5779 5775 5772 5768 5765 5763 5761 5759 5758 5756 5755 5754 5753 5751 5750 5749 5748 5746 5744 5743 5742 5741
5788 5765 5775 5794 5803 5807 5812 5814 5820 5824 5823 5829 5835 5837 5839 5834 5826 5816 5808 5801 5795 5791 5788 5786 5783 5779 5775 5771 5768 5765 5762 5760 5757 5755 5754 5752 5752 5751 5749 5749 5748 5747 5746 5745 5743 5741 5739 5738 5738
5788 5778 5790 5800 5809 5811 5811 5815 5821 5814 5810 5820 5822 5824 5826 5822 5816 5809 5801 5794 5787 5783 5779 5775 5772 5768 5765 5761 5760 5758 5757 5755 5752 5749 5747 5746 5746 5746 5746 5745 5744 5744 5743 5742 5740 5739 5737 5736 5736
5787 5791 5796 5803 5812 5810 5809 5810 5807 5804 5806 5819 5822 5821 5817 5811 5804 5798 5792 5787 5781 5776 5771 5767 5764 5761 5759 5757 5756 5754 5752 5751 5748 5746 5743 5740 5740 5741 5742 5742 5741 5740 5739 5738 5738 5737 5737 5736 5735
5785 5790 5799 5804 5804 5801 5799 5792 5791 5790 5800 5808 5810 5808 5801 5795 5792 5790 5787 5782 5776 5770 5765 5763 5759 5756 5755 5753 5752 5751 5747 5744 5742 5740 5739 5736 5736 5737 5739 5739 5738 5738 5737 5736 5736 5737 5737 5736 5735
5788 5790 5792 5795 5797 5797 5786 5776 5774 5773 5785 5790 5790 5786 5785 5782 5779 5777 5774 5770 5766 5761 5758 5755 5753 5753 5750 5748 5745 5743 5741 5737 5735 5735 5735 5733 5732 5734 5735 5736 5736 5736 5735 5735 5735 5736 5735 5734 5734
5787 5780 5782 5786 5788 5790 5786 5760 5756 5766 5774 5774 5773 5772 5770 5768 5768 5765 5762 5760 5757 5752 5750 5748 5747 5746 5745 5743 5741 5738 5735 5730 5727 5727 5728 5730 5730 5731 5732 5732 5733 5733 5733 5733 5733 5733 5733 5732 5731
5776 5765 5758 5769 5772 5775 5767 5735 5746 5759 5761 5759 5760 5760 5758 5757 5756 5754 5752 5750 5747 5744 5741 5740 5739 5738 5737 5735 5733 5730 5727 5723 5719 5719 5723 5725 5727 5728 5728 5729 5731 5731 5730 5730 5729 5729 5728 5727 5727
5752 5743 5747 5752 5758 5759 5749 5729 5737 5748 5749 5748 5749 5749 5748 5746 5745 5745 5744 5741 5738 5735 5734 5733 5731 5731 5730 5729 5727 5723 5721 5716 5713 5713 5716 5720 5722 5724 5725 5726 5727 5726 5725 5725 5724 5724 5723 5722 5722
5741 5742 5743 5737 5738 5742 5733 5723 5729 5736 5739 5738 5739 5739 5738 5737 5734 5735 5735 5735 5732 5730 5729 5727 5725 5725 5725 5723 5721 5719 5716 5712 5710 5711 5714 5716 5718 5720 5721 5722 5722 5721 5719 5719 5718 5717 5718 5717 5717
5752 5746 5740 5737 5738 5730 5720 5716 5720 5727 5730 5730 5729 5729 5728 5726 5727 5727 5726 5726 5724 5722 5721 5719 5717 5716 5717 5716 5713 5711 5710 5710 5710 5710 5711 5713 5715 5717 5717 5717 5716 5715 5714 5713 5713 5712 5712 5711 5712
5750 5744 5738 5732 5733 5725 5713 5710 5715 5718 5719 5719 5718 5718 5716 5715 5716 5716 5715 5712 5710 5709 5710 5709 5708 5707 5708 5708 5707 5706 5706 5706 5706 5706 5709 5711 5712 5713 5713 5712 5711 5710 5709 5707 5706 5706 5705 5706 5707
5753 5749 5744 5731 5723 5719 5712 5701 5704 5708 5710 5710 5709 5708 5707 5706 5702 5701 5701 5699 5697 5697 5697 5698 5698 5698 5698 5699 5700 5701 5701 5701 5700 5700 5702 5704 5706 5707 5708 5708 5707 5706 5704 5702 5702 5702 5702 5701 5702
5746 5759 5755 5742 5719 5704 5709 5687 5694 5696 5695 5697 5696 5696 5694 5693 5691 5689 5688 5688 5688 5688 5689 5689 5688 5689 5689 5690 5690 5690 5688 5688 5689 5691 5693 5695 5697 5700 5701 5702 5701 5700 5699 5698 5698 5698 5698 5698 5696
5757 5757 5749 5739 5722 5704 5703 5690 5687 5690 5686 5687 5688 5688 5687 5686 5684 5683 5681 5681 5682 5682 5681 5680 5679 5679 5680 5680 5680 5680 5679 5680 5681 5683 5685 5687 5688 5689 5691 5692 5693 5693 5693 5693 5693 5693 5693 5694 5694
5762 5749 5736 5721 5710 5694 5695 5692 5684 5684 5685 5684 5684 5683 5682 5681 5679 5678 5677 5675 5674 5675 5673 5672 5670 5669 5669 5668 5668 5668 5668 5669 5670 5672 5673 5674 5676 5677 5679 5681 5683 5685 5686 5686 5687 5688 5689 5689 5690
5749 5727 5703 5699 5686 5686 5694 5688 5685 5691 5690 5686 5682 5680 5679 5676 5673 5671 5669 5667 5666 5666 5665 5663 5660 5658 5657 5656 5655 5654 5655 5655 5656 5658 5659 5660 5662 5664 5666 5669 5671 5674 5676 5679 5679 5680 5682 5684 5684
5740 5726 5698 5687 5680 5679 5686 5682 5682 5689 5688 5685 5681 5677 5674 5670 5667 5665 5663 5661 5659 5658 5656 5653 5651 5649 5647 5645 5643 5641 5640 5640 5641 5643 5644 5645 5647 5650 5653 5655 5658 5661 5665 5668 5671 5673 5675 5677 5678
5734 5715 5712 5689 5683 5672 5675 5681 5683 5682 5678 5675 5672 5668 5664 5662 5660 5657 5655 5653 5650 5648 5647 5644 5641 5638 5636 5634 5632 5629 5628 5626 5626 5627 5628 5630 5632 5635 5638 5641 5644 5648 5652 5656 5660 5663 5666 5669 5671
5733 5716 5697 5684 5671 5663 5669 5668 5660 5665 5664 5663 5660 5656 5654 5651 5649 5647 5643 5639 5636 5633 5631 5630 5628 5625 5624 5622 5620 5619 5617 5615 5614 5612 5612 5613 5616 5618 5620 5623 5627 5632 5637 5642 5647 5651 5656 5659 5663
5716 5707 5688 5673 5671 5659 5653 5654 5660 5657 5656 5653 5651 5648 5644 5641 5637 5633 5628 5624 5620 5617 5615 5613 5612 5612 5611 5610 5609 5606 5605 5603 5601 5599 5598 5598 5599 5600 5602 5605 5609 5613 5618 5624 5630 5636 5642 5647 5652
5711 5698 5688 5675 5665 5657 5646 5645 5657 5653 5650 5648 5644 5640 5636 5630 5625 5621 5616 5611 5608 5605 5602 5600 5599 5598 5598 5597 5596 5594 5592 5589 5586 5585 5584 5583 5583 5584 5585 5587 5590 5594 5599 5605 5611 5618 5626 5632 5639